カタログに戻る

EXPRESS 2

運用中通信GEO
NORAD 24435·PAYLOAD·🇷🇺 Russia

打ち上げ Sep 26, 1996 から Baikonur Cosmodrome

Loading…

TLE

最新Source: Space-Track

元期: Sep 13, 2026, 17:45 UTC

1 24435U 96058A   26256.74016789 -.00000344  00000-0  00000-0 0  9991
2 24435  14.5581 353.6605 0009092 350.8626  17.6561  1.00269973109702

AllMySatでEXPRESS 2をリアルタイム追跡

Download on the App Store